Location: Great Kyre
(52.2667°N, 2.5500°W)
Time: 22:05:28
(UTC+00:00)

Daily predictions for brighter satellites

Satellite Brightness Start Highest point End
(mag) Time Altitude Azimuth Time Altitude Azimuth Time Altitude Azimuth
USA 307 3.1 18:24:42 10° W 18:28:59 69° N 18:33:15 10° E
USA 306 3.1 18:26:21 10° W 18:30:41 70° N 18:34:57 10° E
Sich 1 4.5 18:28:32 10° SSW 18:32:46 45° WNW 18:37:04 10° N
CZ-2C R/B 3.4 18:28:07 10° NNE 18:32:51 29° E 18:37:28 10° SSE
ATLAS CENTAUR R/B 1.2 18:29:44 10° SSW 18:33:17 54° SE 18:36:56 10° NE
Cosmos 1933 Rocket 3.9 18:30:25 10° SSE 18:34:35 45° E 18:38:48 10° NNE
FALCON 9 DEB 2.9 18:31:30 10° WNW 18:34:43 88° S 18:37:54 10° ESE
ERS-2 3.0 18:32:10 10° NE 18:35:21 28° E 18:38:32 10° SSE
Cosmos 1862 Rocket 4.2 18:31:16 10° NNW 18:35:45 65° W 18:40:10 10° S
Cosmos 1666 Rocket 4.1 18:31:50 10° SSW 18:36:08 63° WNW 18:40:26 10° N
USA 186 3.3 18:35:05 10° E 18:36:18 13° ENE 18:37:34 10° NNE
COSMOS 2428 3.8 18:33:11 10° SSE 18:37:23 22° ESE 18:41:37 10° NE
MOS 1 Rocket 3.8 18:32:22 10° NNE 18:37:30 79° WNW 18:42:50 10° SSW
Cosmos 1378 4.5 18:35:24 10° NNE 18:38:16 20° ENE 18:41:08 10° ESE
USA 308 3.0 18:35:30 10° W 18:39:47 70° N 18:44:03 10° E
Okean O Rocket 4.1 18:37:58 10° SSW 18:41:43 28° W 18:45:29 10° NW
SL-16 R/B 2.5 18:36:38 10° SW 18:42:18 72° WNW 18:48:01 10° NNE
FALCON 9 DEB 3.0 18:40:20 10° WNW 18:43:31 78° SSW 18:46:41 10° ESE
Cosmos 1992 Rocket 4.0 18:38:27 10° SSW 18:43:41 86° ESE 18:48:58 10° NNE
CSL-04 DEB 4.4 18:41:15 10° NNE 18:45:14 88° E 18:49:18 10° SSW
Cosmos 2369 Rocket 4.2 18:43:55 10° NNW 18:46:25 13° NNE 18:48:56 10° NE
Cosmos 2341 Rocket 4.2 18:42:07 10° SSE 18:48:08 51° E 18:54:10 10° NNE
CZ-4B R/B 1.8 18:49:58 10° N 18:53:00 61° WNW 18:56:04 10° SSW
Okean 1-7 3.0 18:48:50 10° N 18:53:13 70° ENE 18:57:31 10° SSE
YAOGAN 1 2.8 18:49:34 10° S 18:53:54 78° WSW 18:58:15 10° NNW
ERBS 3.3 18:50:52 10° W 18:54:01 40° NNW 18:57:11 10° ENE
Cosmos 2322 4.0 18:53:48 10° S 18:59:10 44° ESE 19:04:35 10° NE
SJ 16-02 2.0 18:55:37 10° N 18:59:44 36° ENE 19:03:44 11° SE
Cosmos 2218 Rocket 4.4 18:54:31 10° SSE 19:00:29 43° E 19:06:27 10° NNE
Cosmos 1666 2.9 18:56:55 10° SSE 19:00:29 46° E 19:04:07 10° NNE
COSMO-SKYMED 1 3.4 18:56:52 10° N 19:01:08 55° WNW 19:05:21 10° SSW
PSLV R/B 3.8 18:57:08 10° NNE 19:01:14 69° ESE 19:05:16 10° S
Cosmos 2242 Rocket 3.7 18:57:11 10° NNW 19:01:43 84° W 19:06:10 10° S
Cosmos 1844 Rocket 3.7 18:57:21 10° NW 19:02:43 50° WSW 19:08:03 10° S
SJ-6B 3.7 18:59:14 10° SE 19:02:48 31° ENE 19:06:22 10° N
CSL-04 Rocket 3.7 18:58:22 10° SSE 19:03:54 79° ENE 19:09:24 10° NNW
HJ-1C 3.4 19:01:25 10° SSE 19:04:44 83° W 19:08:03 10° NNW
NOSS 3-2 (A) 4.4 19:03:33 10° SSE 19:07:55 23° ESE 19:12:41 10° ENE
Cosmos 2237 4.4 19:03:56 10° SW 19:09:41 80° WNW 19:15:28 10° NNE
Resurs 01 Rocket 3.2 19:08:22 15° E 19:09:56 18° ENE 19:12:52 10° NNE
CSL-04 Debris 4.2 19:04:49 10° SSE 19:10:17 88° WSW 19:15:49 10° NNW
Okean 3 3.5 19:07:17 10° N 19:11:29 56° ENE 19:15:42 10° SSE
Cosmos 1898 Rocket 4.4 19:07:04 10° NNW 19:11:40 30° NE 19:14:51 17° E
Meteor 1-11 Rocket 4.0 19:06:50 10° SSE 19:12:11 45° E 19:17:27 10° NNE
FALCON 9 DEB 3.3 19:09:23 10° W 19:12:29 56° SSW 19:14:37 18° SE
Meteor 1-14 Rocket 4.3 19:07:17 10° SSW 19:12:49 79° WNW 19:18:24 10° N
Cosmos 1238 Rocket 3.6 19:11:01 10° SSE 19:14:19 25° E 19:17:14 10° NE
Cosmos 1689 Rocket 2.0 19:15:25 10° NNE 19:18:19 86° W 19:21:12 10° SSW
GP-B 3.1 19:14:22 10° S 19:18:49 90° WNW 19:23:17 10° N
Meteor 1-13 Rocket 4.3 19:13:01 10° NNW 19:19:00 83° ENE 19:24:52 10° SSE
Cosmos 1500 4.0 19:16:16 10° SSW 19:19:55 53° WNW 19:23:37 10° N
FALCON 9 DEB 3.3 19:17:22 10° WNW 19:20:31 57° SSW 19:22:20 22° SE
CENTAUR R/B 3.6 19:18:16 10° SSE 19:22:36 21° ESE 19:25:55 15° ENE
Abrixas rocket 3.5 19:22:08 10° WSW 19:24:04 20° SSW 19:25:03 16° SSE
H-2A R/B 3.4 19:20:04 10° S 19:25:16 45° W 19:30:29 10° NNW
Cosmos 2360 Rocket 2.5 19:20:13 10° SW 19:25:52 72° WNW 19:31:35 10° NNE
Cosmos 1536 3.1 19:22:12 10° SSE 19:25:59 44° E 19:29:47 10° NNE
SL-4 R/B 3.4 19:23:31 10° W 19:26:31 26° SSW 19:29:04 12° SSE
SL-08 RB Rocket 3.9 19:21:59 10° S 19:26:31 74° WSW 19:31:08 10° NNW
Resurs 1-3 4.3 19:24:39 20° ESE 19:26:55 33° ENE 19:30:53 10° N
Cosmos 1777 Rocket 4.5 19:22:20 10° NNW 19:27:32 63° WSW 19:32:40 10° S
Cosmos 1869 Rocket 3.5 19:25:20 10° S 19:29:40 68° E 19:34:05 10° NNE
Cosmos 2333 4.1 19:24:19 10° SSW 19:29:58 77° ESE 19:35:43 10° NNE
Cosmos 2278 Rocket 2.2 19:25:39 10° NNW 19:31:19 65° NE 19:35:39 17° SE
Cosmos 1943 Rocket 3.6 19:27:00 10° NNW 19:31:25 22° NE 19:33:57 17° ENE
Cosmos 2237 Rocket 3.2 19:28:14 10° SSE 19:32:35 23° ESE 19:36:55 10° NE
Helios 1A Rocket 3.8 19:29:40 10° S 19:33:36 50° W 19:37:33 10° NNW
Lacrosse 4 Rocket 1.5 19:30:21 10° SSW 19:34:43 63° ESE 19:39:11 10° NE
Cosmos 990 Rocket 4.3 19:30:36 10° NNW 19:35:37 47° ENE 19:38:26 24° ESE
Meteor 1-5 Rocket 4.3 19:30:20 10° SSW 19:35:46 77° WNW 19:41:26 10° N
SAR-Lupe-4 3.9 19:32:50 10° N 19:36:25 66° WNW 19:39:58 10° SSW
ASTEX 1 3.5 19:32:30 10° NNE 19:37:17 50° E 19:42:02 10° SSE
Ariane Rocket 3.1 19:32:56 13° SE 19:37:25 57° ENE 19:42:25 10° N
Gbstr 26 Del rocket 3.4 19:35:10 10° W 19:39:44 74° SSW 19:42:48 26° ESE
DMSP B5D2-2 4.0 19:38:55 10° NNE 19:44:09 67° ESE 19:49:20 10° S
Cosmos 1544 3.6 19:45:34 36° ENE 19:45:34 36° ENE 19:48:37 10° NNE
CZ-4 R/B 4.1 19:43:21 10° SW 19:46:18 20° W 19:49:17 10° NW
OBJECT-B 0.6 19:46:16 38° SE 19:47:20 69° ENE 19:50:33 10° N
Cosmos 1733 Rocket 3.5 19:46:37 30° SE 19:47:58 37° E 19:52:01 10° NNE
NOSS 3-2 (C) 4.3 19:44:14 10° SSE 19:48:09 25° SE 19:48:09 25° SE
Cosmos 2333 Rocket 2.1 19:44:18 10° SSW 19:50:00 85° ESE 19:55:47 10° NNE
IRS-1A Rocket 4.2 19:46:21 11° SSE 19:51:44 77° ENE 19:57:16 10° NNW
SME Rocket 4.1 19:44:09 10° NNE 19:52:01 59° E 19:57:08 10° S
MetOp-A 4.2 19:46:49 10° SSE 19:52:11 79° WSW 19:57:35 10° NNW
USA 81 4.3 19:50:01 15° SSE 19:54:02 45° E 19:59:02 10° NNE
SL-8 Rocket 4.2 19:48:55 10° SSW 19:55:09 75° WNW 20:01:21 10° N
USA 305 2.9 19:51:31 10° WNW 19:55:48 76° SSW 19:57:10 42° SE
Cosmos 1842 4.1 19:52:26 10° N 19:55:39 32° ENE 19:55:39 32° ENE
SPOT 3 Rocket 3.9 19:55:23 32° ESE 19:57:16 46° ENE 20:02:15 10° N
Cosmos 2322 Rocket 3.9 19:54:15 10° WSW 19:59:15 32° NW 20:04:18 10° NNE
Meteor 2-20 4.4 19:54:06 10° N 20:00:16 88° ENE 20:06:25 10° S
SPOT 1/Viking Rocket 4.3 20:05:15 31° ENE 20:05:40 31° ENE 20:10:12 10° N
NOSS 0 Rocket 4.0 20:00:20 10° S 20:06:13 49° ESE 20:12:07 10° NE
SeaSat 1 2.3 20:01:29 10° NNE 20:06:28 84° ESE 20:11:25 10° SSW
USA 186 3.1 20:06:04 25° SW 20:06:50 30° W 20:09:14 10° NNW
ERS-2 4.2 20:05:39 10° N 20:08:53 30° WNW 20:12:06 10° SW
USA 307 2.9 20:04:49 10° WNW 20:09:05 70° SSW 20:09:56 53° SE
Cosmos 2219 Rocket 2.2 20:04:43 10° SW 20:10:20 80° WNW 20:16:00 10° NNE
FALCON 9 DEB 4.4 20:07:34 10° W 20:10:21 28° SSW 20:10:27 28° SSW
USA 306 3.0 20:06:27 10° WNW 20:10:44 67° SSW 20:11:31 53° SSE
ATLAS CENTAUR R/B 3.0 20:09:10 10° W 20:12:22 28° NNW 20:15:10 13° NNE
Cosmos 2366 rocket 4.3 20:06:30 10° SSW 20:12:49 70° WNW 20:19:12 10° N
Cosmos 2221 Rocket 3.8 20:09:02 10° NNW 20:13:27 68° W 20:16:38 18° S
CZ-2C R/B 3.4 20:08:07 10° N 20:13:27 53° WNW 20:18:37 10° SW
Cosmos 1378 4.5 20:10:15 10° NNW 20:13:46 39° W 20:17:14 10° SSW
Cosmos 1674 Rocket 3.4 20:10:21 10° N 20:14:41 70° ENE 20:15:19 59° SE
ARIANE 5 R/B 3.9 20:16:15 27° NE 20:16:15 27° NE 20:19:22 10° N
Cosmos 1937 Rocket 3.5 20:10:59 10° NNW 20:16:07 60° ENE 20:17:08 49° ESE
Cosmos 1980 3.8 20:11:19 10° S 20:16:41 48° ESE 20:22:06 10° NE
USA 234 3.5 20:17:19 37° ESE 20:18:54 43° SE 20:25:03 10° SSW
USA 308 3.0 20:15:36 10° WNW 20:19:50 63° SSW 20:20:17 58° S
COSMOS 2428 2.8 20:15:21 10° SW 20:21:03 79° WNW 20:26:48 10° NNE
SL-16 R/B 4.5 20:23:06 10° W 20:27:27 22° NNW 20:31:48 10° NNE
USA 238 DEB 3.6 20:22:00 10° SSW 20:28:26 60° SE 20:33:59 16° NE
USA 238 3.6 20:22:06 10° SSW 20:28:33 59° SE 20:33:55 17° NE
Cosmos 1378 Rocket 3.4 20:25:18 10° N 20:29:47 83° E 20:30:04 77° SE
BREEZE-M DEB (TANK) 3.7 20:27:29 10° WSW 20:29:01 22° SW 20:29:01 22° SW
ERBS 3.7 20:27:32 10° WNW 20:30:02 34° NNW 20:30:02 34° NNW
Cosmos 1743 2.8 20:30:38 65° SW 20:31:04 74° WNW 20:34:59 10° N
Cosmos 2369 Rocket 3.2 20:27:32 10° NNW 20:32:25 30° NE 20:32:51 29° NE
SPOT 5 4.3 20:36:41 22° NNE 20:36:41 22° NNE 20:38:57 10° N
Cosmos 1821 Rocket 3.8 20:31:04 10° S 20:37:18 87° E 20:43:29 10° N
SJ 16-02 2.9 20:34:19 10° NW 20:38:16 32° WSW 20:40:46 18° SSW
Okean 2 4.0 20:36:02 10° N 20:39:08 49° N 20:39:08 49° N
ERS-1 Rocket 4.1 20:43:18 31° NE 20:43:18 31° NE 20:46:48 10° N
Resurs 01 Rocket 1.6 20:45:55 76° WSW 20:45:55 76° WSW 20:50:22 10° NNW
Cosmos 2239 Rocket 4.4 20:42:03 14° S 20:47:33 87° E 20:53:51 10° N
Spot 2 Rocket 3.8 20:52:03 53° NE 20:52:03 53° NE 20:56:24 10° N
USA 245 4.3 20:52:00 67° ESE 20:52:32 71° ENE 20:58:52 10° N
Cosmos 1934 Rocket 3.8 20:52:33 67° ESE 20:52:52 69° E 20:59:00 10° NNE
Cosmos 1898 Rocket 4.0 20:48:57 10° NNW 20:54:05 57° WSW 20:55:10 47° SSW
Terra 3.5 20:56:38 23° NNE 20:56:38 23° NNE 20:58:59 10° N
Cosmos 2297 3.6 20:51:27 10° NNW 20:57:13 78° ENE 20:57:22 77° ENE
NOSS 3-2 (A) 3.3 20:52:00 10° SW 20:57:48 88° NW 21:02:30 21° NE
Cosmos 2123 Rocket 3.9 20:51:55 10° N 20:58:13 86° W 20:59:36 57° S
In-Cosmos 22 4.3 21:00:52 10° N 21:05:59 64° NE 21:05:59 64° NE
MetOp-B 4.1 21:06:46 74° SW 21:06:59 75° WSW 21:12:23 10° NNW
Cosmos 2360 Rocket 4.5 21:06:34 10° W 21:10:54 22° NNW 21:15:14 10° NNE
Meteor 1-21 4.5 21:05:51 10° NNW 21:11:31 67° W 21:12:15 60° SW
CENTAUR R/B 2.4 21:05:59 10° SW 21:12:05 82° SE 21:19:26 10° NE
Lacrosse 4 Rocket 3.5 21:09:54 10° W 21:13:46 28° NW 21:16:41 15° NNE
Cosmos 2278 Rocket 3.9 21:10:19 10° NW 21:14:59 27° WSW 21:17:33 19° SW
Cosmos 2237 Rocket 2.3 21:10:21 10° SW 21:16:04 76° WNW 21:21:49 10° NNE
Cosmos 1943 Rocket 2.3 21:10:26 10° NNW 21:15:29 67° N 21:15:29 67° N
Cosmos 372 Rocket 4.3 21:11:44 10° NNW 21:16:04 62° NNW 21:16:04 62° NNW
Cosmos 1605 Rocket 4.2 21:36:06 64° NNE 21:36:06 64° NNE 21:41:24 10° N
Cosmos 2333 Rocket 4.2 21:30:10 10° W 21:35:00 27° NW 21:39:51 10° NNE
USA 281 3.7 21:44:57 49° NNE 21:44:57 49° NNE 21:50:32 10° NNW
ATLAS CENTAUR R/B 4.3 21:50:26 10° NW 21:51:21 12° NNW 21:51:21 12° NNW
Cosmos 2219 Rocket 4.4 21:50:47 10° W 21:55:11 23° NW 21:59:38 10° NNE
USA 234 4.0 22:04:42 43° WSW 22:04:42 43° WSW 22:08:52 10° WSW
Cosmos 2369 Rocket 3.5 22:11:22 10° NW 22:14:39 36° NW 22:14:39 36° NW
USA 238 DEB 4.3 22:13:05 10° WSW 22:19:36 51° NNW 22:26:29 10° NE
USA 238 4.3 22:13:12 10° WSW 22:19:42 51° NNW 22:26:36 10° NE
Terra 4.2 22:35:31 20° NNW 22:35:31 20° NNW 22:37:04 10° NNW
Cosmos 1943 Rocket 4.5 22:55:01 10° NW 22:57:02 18° WNW 22:57:02 18° WNW
Cosmos 2237 Rocket 4.3 22:56:39 10° W 23:01:06 23° NW 23:05:33 10° NNE
CENTAUR R/B 3.8 22:57:16 10° W 23:04:28 41° N 23:10:51 10° NE
SL-16 R/B 4.5 23:26:00 19° N 23:26:00 19° N 23:27:53 10° NNE
